Regional Weather Roundup
Issued by NWS

Home | Current Version | Previous Version | Text Only | Print | Product List | Glossary Off
Versions: 1 2 3 4 5 6 7 8 9 10 11 12 13 14 15 16 17 18 19 20 21 22 23 24 25 26 27 28 29 30 31 32 33 34 35 36 37 38 39 40 41 42 43 44 45 46 47 48 49 50

001
ASUS43 KMKX 281100
RWRWI

WISCONSIN REGIONAL WEATHER ROUNDUP
NATIONAL WEATHER SERVICE MILWAUKEE/SULLIVAN WI
600 AM CDT FRI APR 28 2017

NOTE: "FAIR" INDICATES FEW OR NO CLOUDS BELOW 12,000 FEET WITH NO
SIGNIFICANT WEATHER AND/OR OBSTRUCTIONS TO VISIBILITY.

WIZ001-002-006>008-014>016-023>028-281200-
NORTHWEST WISCONSIN

CITY           SKY/WX    TMP DP  RH WIND       PRES   REMARKS
SUPERIOR ARPT  CLOUDY    31  24  75 W9        29.79R WCI  23
ASHLAND        CLOUDY    30  24  78 SW10      29.78R WCI  21
HAYWARD        CLOUDY    30  24  78 VRB3      29.79R
SIREN          CLOUDY    32  26  77 W7        29.81R WCI  26
CUMBERLAND     CLOUDY    30  23  74 W8        29.80S WCI  23
RICE LAKE      CLOUDY    32  26  78 W6        29.83R WCI  26
CHETEK         NOT AVBL
LADYSMITH      CLOUDY    32  26  78 W9        29.81R WCI  24
EAU CLAIRE     NOT AVBL
MENOMONIE      CLOUDY    35  28  78 SW6       29.84S WCI  30
NEW RICHMOND   CLOUDY    34  27  75 W7        29.83S WCI  28
OSCEOLA        CLOUDY    34  25  68 W12G21    29.87R WCI  26
$$

WIZ003>005-009-010-017-018-281200-
NORTH CENTRAL WISCONSIN

CITY           SKY/WX    TMP DP  RH WIND       PRES   REMARKS
MANITOWISH WTR NOT AVBL
ARBOR VITAE    CLOUDY    32  28  87 SW10G16   29.72S WCI  23
WOODRUFF       CLOUDY    32  28  87 SW10G16   29.72S WCI  23
RHINELANDER    CLOUDY    30  24  78 W15G23    29.76R WCI  19
EAGLE RIVER    CLOUDY    28  23  81 SW10G21   29.73R HAZE    WCI  19
LAND O LAKES   CLOUDY    28  26  89 W7        29.73R FOG     WCI  21
PHILLIPS       CLOUDY    28  25  86 W7        29.75S WCI  21
TOMAHAWK       CLOUDY    29  22  76 SW6       29.78R WCI  23
MEDFORD        CLOUDY    30  24  78 W8        29.79R WCI  23
MERRILL        CLOUDY    31  26  82 W8        29.80R WCI  23
$$

WIZ029-030-035-036-043>047-281200-
CENTRAL WISCONSIN

CITY           SKY/WX    TMP DP  RH WIND       PRES   REMARKS
WAUSAU         CLOUDY    31  25  78 W13       29.80R WCI  21
MOSINEE        CLOUDY    32  27  80 W14G20    29.82R WCI  22
MARSHFIELD     CLOUDY    32  24  72 W10       29.81R WCI  24
STEVENS POINT  CLOUDY    32  26  79 W12G20    29.83S WCI  23
WAUPACA        CLOUDY    36  28  73 W13       29.84S WCI  27
WAUTOMA        CLOUDY    35  29  78 W6          N/A  WCI  30
WISC RAPIDS    CLOUDY    34  27  75 W8        29.85R WCI  27
CAMP DOUGLAS   NOT AVBL
$$

WIZ011>013-019>022-031-037>040-048>050-281200-
NORTHEAST WISCONSIN

CITY           SKY/WX    TMP DP  RH WIND       PRES   REMARKS
ANTIGO         CLOUDY    28  26  89 W9        29.78S WCI  20
SHAWANO        CLOUDY    35  27  70 W9        29.83S WCI  28
OCONTO         CLOUDY    34  24  67 W12G21    29.83R WCI  25
STURGEON BAY   CLOUDY    35  26  69 W13       29.84R WCI  26
GREEN BAY      CLOUDY    36  32  85 W13       29.85R WCI  27
MANITOWOC      NOT AVBL
APPLETON       CLOUDY    34  28  80 W13G20    29.83R WCI  25
CLINTONVILLE   CLOUDY    34  27  75 W12G20    29.84R WCI  25
OSHKOSH        CLOUDY    36  28  73 W8        29.84S WCI  30
$$

WIZ032>034-041-042-053>061-281200-
SOUTHWEST WISCONSIN

CITY           SKY/WX    TMP DP  RH WIND       PRES   REMARKS
LA CROSSE      CLEAR     35  26  69 W8        29.87S WCI  29
SPARTA         CLEAR     32  28  84 CALM      29.87S
VIROQUA        CLEAR     31  28  90 NW5       29.85S WCI  26
BOSCOBEL       CLEAR     32  27  81 CALM      29.89R
PRAIRIE DU CHI CLOUDY    31  27  87 E3        29.88S
PLATTEVILLE    CLEAR     32  31  94 W5        29.88R WCI  27
$$

WIZ056-057-062-063-064-067-068-281200-
SOUTH CENTRAL WISCONSIN

CITY           SKY/WX    TMP DP  RH WIND       PRES   REMARKS
REEDSBURG      CLOUDY    33  28  81 W8        29.86S WCI  26
BARABOO/DELLS  CLOUDY    33  27  78 W9        29.86S WCI  26
LONE ROCK      NOT AVBL
MINERAL POINT  CLEAR     32  32 100 CALM      29.86R
MADISON        PTCLDY    32  30  92 CALM      29.86S
MIDDLETON      CLEAR     32  30  91 W5        29.86S WCI  28
WATERTOWN      CLOUDY    33  33  98 W3        29.85F
MONROE         CLEAR     34  30  86 W10       29.86R WCI  26
JANESVILLE     PTCLDY    36  34  93 W3        29.88R
$$

WIZ051-052-058>065-066-070>072-281200-
SOUTHEAST WISCONSIN

CITY           SKY/WX    TMP DP  RH WIND       PRES   REMARKS
MILWAUKEE      MOCLDY    39  31  72 W7        29.88R WCI  34
WAUKESHA       CLEAR     32  28  86 SW6       29.87R WCI  26
MILWAUKEE/TIMM PTCLDY    34  28  80 W3        29.87R
RACINE         CLEAR     37  30  75 W3        29.90R
KENOSHA        CLOUDY    38  30  73 SW5       29.89R WCI  34
FOND DU LAC    CLOUDY    37  27  67 W10       29.85S WCI  30
SHEBOYGAN      CLOUDY    37  32  82 W10       29.85R WCI  30
WEST BEND      CLOUDY    36  32  87 W8        29.85S WCI  29
JUNEAU         CLOUDY    35  29  80 CALM      29.86S
$$

LSZ147-162-281200-
LAKE SUPERIOR

STATION/POSITION TIME  TEMP    WIND        PRES    WAVE
                       AIR SEA DIR/SP/G            HT/PER
                 (UTC) (F)     (DEG/KT/KT) (MB)    (FT/S)
DEVILS ISLAND    1000   31     260/ 20/ 24 1007.0R
PORT WING        1040   33     260/ 15/ 21 1008.5R
SAXON HARBOR     1040   30     220/  7/ 12 1007.8R
$$

LMZ867-665-643>646-281200-
LAKE MICHIGAN

STATION/POSITION TIME  TEMP    WIND        PRES    WAVE
                       AIR SEA DIR/SP/G            HT/PER
                 (UTC) (F)     (DEG/KT/KT) (MB)    (FT/S)
CHAMBERS ISLAND  1040   34     230/  9/ 18 1009.5R
N MID LAKE BUOY  0950   35 37  260/ 16/ 17 1009.8R   3/ 4
NORTHPORT PIER   1040   34     290/  6/ 12 1009.8R
KEWAUNEE LAKESHO 1030   37     270/  9/ 12 1010.2R
SHEBOYGAN LAKESH 1000   40     270/ 12/ 16 1011.0R
PORT WASHINGTON  1030   39     270/  2/  4 1012.2R
MILWAUKEE LAKESH 1030   39     270/  7/  9   N/A
S MID LAKE BUOY  0950   42 41  280/  6/  6 1012.3R   2/ 4
KENOSHA   LAKESH 1000   41     270/  3/  7 1011.5
$$

TC  - TEMPERATURE IN CELSIUS
VSB - VISIBILITY IN STATUTE MILES
WCI - WIND CHILL INDEX
HX  - HEAT INDEX





USA.gov is the U.S. government's official web portal to all federal, state and local government web resources and services.